Home > Weather > U.S.A. > State College > Past weeks

Flag for U.S.A. Weather past 2 weeks in State College, Pennsylvania, U.S.A.

39 °F

Drizzle. Fog.

Feels Like: 37 °F
Forecast: 39 / 47 °F
Wind: 3 mph from Northwest

Location: University Park Airport

Current Time: Dec 1, 2015 at 10:43:49 AM

Latest Report: Dec 1, 2015 at 9:53 AM

Visibility: 1 mi

Pressure: 30.10 "Hg

Humidity: 100%

Dew point: 39 °F

Location of State CollegeLocation

Historic Weather in State College — Graph


State College temperature yesterday

Maximum temperature yesterday: 36 °F (at 2:53 PM)
Minimum temperature yesterday: 25 °F (at 5:53 AM)
Average temperature yesterday: 30 °F

Past Weeks' High & Low Weather Summary

High64 °F (Nov 16, 1:53 PM)100% (Nov 19, 12:53 PM)30.71 "Hg (Nov 19, 12:53 PM)
Low24 °F (Nov 25, 3:55 AM)21% (Nov 20, 12:53 PM)29.80 "Hg (Nov 21, 10:35 PM)
Average41 °F71%30.27 "Hg
* Reported Nov 16 8:53 AM — Dec 1 8:53 AM, State College, Weather by CustomWeather, © 2015

Note: Actual official high and low records may vary slightly from our data, if they occured in-between our weather recording intervals... More about our weather records


State College weather history for previous 24 hours

Time TempWeatherWind HumidityBarometerVisibility
8:53 AM
Tue, Dec 1
39 °FFog.No wind100%30.11 "Hg5 mi
7:53 AM39 °FFog.No wind100%30.10 "Hg5 mi
6:53 AM37 °FFog.5 mph100%30.12 "Hg3 mi
5:53 AM37 °FDrizzle. Fog.3 mph100%30.10 "Hg3 mi
5:35 AM38 °FDrizzle. Overcast.5 mph98%30.11 "Hg3 mi
5:15 AM37 °FDrizzle. Overcast.No wind98%30.13 "Hg2 mi
4:55 AM37 °FDrizzle. Overcast.3 mph99%30.14 "Hg3 mi
4:35 AM37 °FFog.3 mph98%30.13 "Hg5 mi
4:15 AM36 °FLight rain. Overcast.No wind99%30.14 "Hg2 mi
3:55 AM36 °FLight rain. Overcast.3 mph99%30.16 "Hg2 mi
2:55 AM36 °FDrizzle. Mostly cloudy.No wind98%30.17 "Hg1 mi
2:15 AM36 °FLight rain. Mostly cloudy.No wind98%30.17 "Hg2 mi
1:55 AM36 °FLight rain. Low clouds.No wind98%30.17 "Hg1 mi
1:15 AM36 °FDrizzle. Low clouds.3 mph99%30.18 "Hg2 mi
12:55 AM36 °FFog.3 mph98%30.18 "Hg2 mi
12:35 AM36 °FLight rain. Low clouds.3 mph99%30.19 "Hg2 mi
12:15 AM36 °FDrizzle. Low clouds.3 mph99%30.20 "Hg3 mi
11:55 PM
Mon, Nov 30
35 °FLight rain. Low clouds.3 mph98%30.20 "Hg2 mi
11:15 PM35 °FRain. Mostly cloudy.No wind99%30.21 "Hg1 mi
10:55 PM35 °FRain. Mostly cloudy.3 mph98%30.22 "Hg2 mi
10:35 PM35 °FDrizzle. Mostly cloudy.3 mph98%30.23 "Hg2 mi
10:15 PM35 °FLight rain. Low clouds.No wind98%30.23 "Hg2 mi
9:55 PM34 °FLight rain. Low clouds.3 mph98%30.23 "Hg2 mi
8:53 PM34 °FFog.No wind100%30.25 "Hg3 mi
7:53 PM34 °FFog.No wind93%30.27 "Hg3 mi
6:53 PM34 °FFog.No wind93%30.28 "Hg2 mi
5:53 PM34 °FFog.No wind93%30.28 "Hg1 mi
4:53 PM32 °FLight rain. Ice fog.3 mph100%30.29 "Hg1 mi
3:53 PM34 °FDrizzle. Fog.3 mph93%30.29 "Hg1 mi
2:53 PM36 °FFog.3 mph81%30.29 "Hg4 mi
1:53 PM34 °FMostly cloudy.3 mph81%30.29 "Hg7 mi
12:53 PM34 °FOvercast.3 mph81%30.32 "Hg10 mi
11:53 AM32 °FOvercast.5 mph80%30.35 "Hg10 mi
10:53 AM32 °FPartly sunny.5 mph75%30.36 "Hg10 mi
Weather by CustomWeather, © 2015

See weather overviewHow to use our weather pages